When you browse on this site, cookies collect data to enhance your experience and personalize the content and advertising you see.
Visit our Privacy Policy to learn more. By continuing to use the site, you agree to this use of cookies and data.
  • In United Kingdom
  • List of Countries
  • For 7 days
  • Water Temperature
  • Weather Map
  • Weather Widgets
  • user-avatar
    Login

    Hourly Weather Berettyoujfalu

    Today, 16 September, Monday

    Time Temperature Precipitation Wind Pressure Humidity
    00:00 +16°C° 0 mm 2 mps 758 mmHg 48%
    01:00 +16°C° 0 mm 2 mps 757 mmHg 53%
    02:00 +16°C° 0 mm 2 mps 757 mmHg 55%
    03:00 +15°C° 0 mm 2 mps 757 mmHg 57%
    04:00 +15°C° 0 mm 2 mps 756 mmHg 59%
    05:00 +16°C° 0 mm 3 mps 756 mmHg 57%
    06:00 +17°C° 0 mm 3 mps 756 mmHg 54%
    07:00 +18°C° 0 mm 3 mps 756 mmHg 52%
    08:00 +20°C° 0 mm 3 mps 756 mmHg 49%
    09:00 +22°C° 0 mm 3 mps 756 mmHg 45%
    10:00 +26°C° 0 mm 3 mps 755 mmHg 42%
    11:00 +27°C° 0 mm 3 mps 755 mmHg 39%
    12:00 +28°C° 0 mm 4 mps 755 mmHg 37%
    13:00 +29°C° 0 mm 4 mps 754 mmHg 35%
    14:00 +29°C° 0 mm 4 mps 754 mmHg 36%
    15:00 +29°C° 0 mm 4 mps 753 mmHg 37%
    16:00 +29°C° 0 mm 4 mps 753 mmHg 37%
    17:00 +27°C° 0 mm 3 mps 753 mmHg 43%
    18:00 +26°C° 0 mm 3 mps 752 mmHg 49%
    19:00 +24°C° 0 mm 2 mps 752 mmHg 55%
    20:00 +23°C° 0 mm 2 mps 752 mmHg 56%
    21:00 +21°C° 0 mm 2 mps 752 mmHg 58%
    22:00 +20°C° 0 mm 2 mps 752 mmHg 59%
    23:00 +19°C° 0 mm 2 mps 752 mmHg 60%

    Tomorrow, 17 September, Tuesday

    Time Temperature Precipitation Wind Pressure Humidity
    00:00 +19°C° 0 mm 2 mps 752 mmHg 61%
    01:00 +19°C° 0 mm 2 mps 752 mmHg 61%
    02:00 +18°C° 0 mm 2 mps 752 mmHg 62%
    03:00 +19°C° 0 mm 1 mps 752 mmHg 62%
    04:00 +19°C° 0 mm 1 mps 751 mmHg 62%
    05:00 +19°C° 0 mm 2 mps 751 mmHg 59%
    06:00 +19°C° 0 mm 2 mps 752 mmHg 56%
    07:00 +20°C° 0 mm 3 mps 752 mmHg 54%
    08:00 +21°C° 0 mm 4 mps 752 mmHg 54%
    09:00 +22°C° 0 mm 4 mps 752 mmHg 54%
    10:00 +23°C° 0 mm 5 mps 752 mmHg 53%
    11:00 +23°C° 0 mm 5 mps 752 mmHg 50%
    12:00 +24°C° 0 mm 6 mps 752 mmHg 47%
    13:00 +26°C° 0 mm 7 mps 751 mmHg 44%
    14:00 +24°C° 0 mm 7 mps 751 mmHg 47%
    15:00 +24°C° 0 mm 7 mps 751 mmHg 49%
    16:00 +23°C° 0 mm 7 mps 750 mmHg 52%
    17:00 +22°C° 0 mm 6 mps 750 mmHg 55%
    18:00 +21°C° 0 mm 4 mps 751 mmHg 58%
    19:00 +20°C° 0 mm 3 mps 751 mmHg 61%
    20:00 +19°C° 0 mm 3 mps 751 mmHg 64%
    21:00 +18°C° 0 mm 3 mps 751 mmHg 67%
    22:00 +17°C° 0 mm 3 mps 751 mmHg 71%
    23:00 +16°C° 0 mm 3 mps 751 mmHg 72%

    Day after tomorrow, 18 September, Wednesday

    Time Temperature Precipitation Wind Pressure Humidity
    00:00 +16°C° 0 mm 3 mps 751 mmHg 73%
    01:00 +16°C° 0 mm 3 mps 752 mmHg 75%
    02:00 +14°C° 0 mm 4 mps 752 mmHg 71%
    03:00 +13°C° 0 mm 4 mps 753 mmHg 67%
    04:00 +13°C° 0 mm 4 mps 753 mmHg 63%
    05:00 +13°C° 0 mm 5 mps 754 mmHg 58%
    06:00 +13°C° 0 mm 5 mps 755 mmHg 53%
    07:00 +13°C° 0 mm 5 mps 755 mmHg 49%
    08:00 +14°C° 0 mm 4 mps 756 mmHg 44%
    09:00 +16°C° 0 mm 3 mps 756 mmHg 39%
    10:00 +17°C° 0 mm 2 mps 757 mmHg 35%
    11:00 +18°C° 0 mm 2 mps 757 mmHg 31%
    12:00 +19°C° 0 mm 2 mps 757 mmHg 28%
    13:00 +20°C° 0 mm 2 mps 757 mmHg 24%
    14:00 +19°C° 0 mm 3 mps 756 mmHg 24%
    15:00 +19°C° 0 mm 3 mps 756 mmHg 24%
    16:00 +19°C° 0 mm 3 mps 756 mmHg 23%
    17:00 +17°C° 0 mm 2 mps 757 mmHg 28%
    18:00 +15°C° 0 mm 2 mps 757 mmHg 33%
    19:00 +13°C° 0 mm 1 mps 758 mmHg 37%
    20:00 +13°C° 0 mm 1 mps 758 mmHg 40%
    21:00 +12°C° 0 mm 1 mps 758 mmHg 43%
    22:00 +12°C° 0 mm 2 mps 758 mmHg 46%
    23:00 +10°C° 0 mm 2 mps 758 mmHg 48%

    19 September, Thursday

    Time Temperature Precipitation Wind Pressure Humidity
    00:00 +10°C° 0 mm 2 mps 758 mmHg 50%
    01:00 +9°C° 0 mm 2 mps 758 mmHg 52%
    02:00 +9°C° 0 mm 2 mps 758 mmHg 54%
    03:00 +8°C° 0 mm 2 mps 758 mmHg 57%
    04:00 +8°C° 0 mm 2 mps 758 mmHg 59%
    05:00 +8°C° 0 mm 2 mps 758 mmHg 57%
    06:00 +9°C° 0 mm 2 mps 758 mmHg 55%
    07:00 +10°C° 0 mm 2 mps 758 mmHg 53%
    08:00 +13°C° 0 mm 2 mps 758 mmHg 48%
    09:00 +14°C° 0 mm 3 mps 758 mmHg 43%
    10:00 +16°C° 0 mm 3 mps 759 mmHg 38%
    11:00 +17°C° 0 mm 3 mps 758 mmHg 35%
    12:00 +18°C° 0 mm 3 mps 758 mmHg 32%
    13:00 +19°C° 0 mm 3 mps 758 mmHg 29%
    14:00 +18°C° 0 mm 4 mps 758 mmHg 31%
    15:00 +18°C° 0 mm 4 mps 758 mmHg 33%
    16:00 +16°C° 0 mm 5 mps 758 mmHg 34%
    17:00 +15°C° 0 mm 4 mps 758 mmHg 39%
    18:00 +13°C° 0 mm 3 mps 758 mmHg 44%
    19:00 +12°C° 0 mm 2 mps 759 mmHg 49%
    20:00 +10°C° 0 mm 3 mps 759 mmHg 52%
    21:00 +10°C° 0 mm 3 mps 759 mmHg 55%
    22:00 +9°C° 0 mm 3 mps 760 mmHg 58%
    23:00 +9°C° 0 mm 2 mps 760 mmHg 60%

    20 September, Friday

    Time Temperature Precipitation Wind Pressure Humidity
    00:00 +8°C° 0 mm 2 mps 760 mmHg 62%
    01:00 +8°C° 0 mm 2 mps 760 mmHg 64%
    02:00 +8°C° 0 mm 2 mps 760 mmHg 65%
    03:00 +7°C° 0 mm 2 mps 760 mmHg 65%
    04:00 +7°C° 0 mm 3 mps 760 mmHg 65%
    05:00 +8°C° 0 mm 3 mps 760 mmHg 62%
    06:00 +9°C° 0 mm 3 mps 761 mmHg 59%
    07:00 +10°C° 0 mm 4 mps 761 mmHg 56%
    08:00 +12°C° 0 mm 4 mps 761 mmHg 48%
    09:00 +14°C° 0 mm 5 mps 761 mmHg 41%
    10:00 +15°C° 0 mm 5 mps 762 mmHg 33%
    11:00 +16°C° 0 mm 5 mps 761 mmHg 32%
    12:00 +17°C° 0 mm 4 mps 761 mmHg 31%
    13:00 +17°C° 0 mm 4 mps 761 mmHg 30%
    14:00 +17°C° 0 mm 4 mps 761 mmHg 31%
    15:00 +17°C° 0 mm 4 mps 760 mmHg 32%
    16:00 +17°C° 0 mm 4 mps 760 mmHg 33%
    17:00 +14°C° 0 mm 3 mps 761 mmHg 37%
    18:00 +13°C° 0 mm 2 mps 761 mmHg 42%
    19:00 +12°C° 0 mm 2 mps 761 mmHg 46%
    20:00 +10°C° 0 mm 2 mps 762 mmHg 47%
    21:00 +9°C° 0 mm 2 mps 762 mmHg 48%
    22:00 +9°C° 0 mm 2 mps 762 mmHg 49%
    23:00 +8°C° 0 mm 2 mps 762 mmHg 51%

    21 September, Saturday

    Time Temperature Precipitation Wind Pressure Humidity
    00:00 +9°C° 0 mm 1 mps 762 mmHg 52%
    01:00 +9°C° 0 mm 1 mps 762 mmHg 54%
    02:00 +8°C° 0 mm 1 mps 762 mmHg 55%
    03:00 +8°C° 0 mm 1 mps 762 mmHg 56%
    04:00 +8°C° 0 mm 1 mps 762 mmHg 57%
    05:00 +9°C° 0 mm 1 mps 762 mmHg 54%
    06:00 +10°C° 0 mm 1 mps 762 mmHg 51%
    07:00 +10°C° 0 mm 0 mps 762 mmHg 49%
    08:00 +12°C° 0 mm 0 mps 762 mmHg 43%
    09:00 +14°C° 0 mm 0 mps 762 mmHg 38%
    10:00 +17°C° 0 mm 0 mps 762 mmHg 33%
    11:00 +19°C° 0 mm 1 mps 762 mmHg 31%
    12:00 +20°C° 0 mm 1 mps 761 mmHg 29%
    13:00 +19°C° 0 mm 2 mps 761 mmHg 27%
    14:00 +19°C° 0 mm 2 mps 761 mmHg 27%
    15:00 +20°C° 0 mm 2 mps 760 mmHg 27%
    16:00 +20°C° 0 mm 2 mps 760 mmHg 27%
    17:00 +18°C° 0 mm 2 mps 760 mmHg 31%
    18:00 +16°C° 0 mm 1 mps 760 mmHg 36%
    19:00 +14°C° 0 mm 1 mps 761 mmHg 40%
    20:00 +13°C° 0 mm 1 mps 761 mmHg 42%
    21:00 +13°C° 0 mm 1 mps 761 mmHg 44%
    22:00 +12°C° 0 mm 1 mps 761 mmHg 46%
    23:00 +12°C° 0 mm 1 mps 761 mmHg 47%
    Show more